weather.gov     
National Weather Service

Terminal Aerodrome Forecast
NWS Homepage
This page is being discontinued on March 12, 2014.
The same data is available at this site. Please update your bookmarks.
Thank you, and we apologize for the inconvenience.
Please send an email to SR-SRH.Webmaster@noaa.gov with any concerns.


Current Version
Previous Version:    01  02  03  04  05  06  07  08  09  10  11  12  13  14  15  16  17  18  19  20  21  22  23  24  25  26  27  
[Printable]
201
FTUS46 KOTX 251129
TAFSFF
TAF
KSFF 251129Z 2512/2612 06005KT P6SM BKN240
     FM251800 12008KT P6SM SCT080 BKN120
     FM252100 18007G13KT P6SM VCSH SCT040 BKN080 OVC120
     FM260300 20015G22KT P6SM -SHRA SCT030 BKN050 OVC080
     FM260900 22020G32KT P6SM BKN050=




201
FTUS46 KOTX 251129
TAFSFF
TAF
KSFF 251129Z 2512/2612 06005KT P6SM BKN240
     FM251800 12008KT P6SM SCT080 BKN120
     FM252100 18007G13KT P6SM VCSH SCT040 BKN080 OVC120
     FM260300 20015G22KT P6SM -SHRA SCT030 BKN050 OVC080
     FM260900 22020G32KT P6SM BKN050=


U.S. Dept. of Commerce
NOAA National Weather Service
1325 East West Highway
Silver Spring, MD 20910
E-mail: w-nws.webmaster@noaa.gov
Page last modified: May 16, 2007
NATIONAL WEATHER SERVICE: for Safety, for Work, for Fun - FOR LIFE